This demonstration page uses our WeatherBlox Daily Observations layout. Learn more.

41.55636, -103.73856

Hourly Observations for May 25, 2015

Temp ( °F °C ) Dew Point ( °F °C ) Humidity (%) Winds ( mph kmh ) Pressure ( in mb ) Visibility ( mi km ) Precip ( " mm )
12:35 am 00:35 Cloudy 53 11.7 50 10 89 89 ESE 6 9 29.8 1009 10 16.0934 0 0
12:53 am 00:53 Cloudy with Light Rain 52 11.1 49 9.4 89 89 E 5 7 29.76 1008 10 16.0934 0 0.0254
1:53 am 01:53 Cloudy with Light Rain 51 10.6 50 10 96 96 WSW 3 6 29.74 1007 10 16.0934 0 0.0254
2:12 am 02:12 Cloudy with Light Rain 52 11 50 10 94 94 SW 6 9 29.77 1008 10 16.0934 0 0
2:23 am 02:23 Cloudy 51 10.6 50 10 96 96 SW 7 11 29.77 1008 10 16.0934 0.01 0.254
2:53 am 02:53 Cloudy 51 10.6 50 10 96 96 W 7 11 29.72 1007 10 16.0934 0.01 0.254
3:53 am 03:53 Cloudy 51 10.6 51 10.6 100 100 WNW 9 15 29.72 1007 10 16.0934 0 0.0254
4:31 am 04:31 Cloudy 51 10.6 50 10 96 96 NW 9 15 29.77 1008 10 16.0934 0 0
4:53 am 04:53 Cloudy with Light Rain 51 10.6 50 10 96 96 NW 7 11 29.73 1007 10 16.0934 0 0.0254
5:07 am 05:07 Cloudy with Light Rain 51 10.6 50 10 96 96 NW 8 13 29.77 1008 10 16.0934 0 0.0254
5:53 am 05:53 Cloudy with Light Rain 51 10.6 49 9.4 92 92 NW 9 15 29.75 1007 7 11.26538 0.04 1.016
6:53 am 06:53 Cloudy with Light Rain 50 10 48 8.9 93 93 WNW 10 17 29.78 1009 10 16.0934 0.02 0.508
7:53 am 07:53 Cloudy with Light Rain 50 10 49 9.4 96 96 WNW 13 20 29.79 1009 6 9.65604 0.03 0.762
8:38 am 08:38 Cloudy with Light Rain 52 11 48 9 88 88 WNW 10 17 29.8 1009 5 8.0467 0 0
8:53 am 08:53 Cloudy with Light Rain 51 10.6 50 10 96 96 WNW 8 13 29.8 1009 6 9.65604 0.07 1.778
9:01 am 09:01 Cloudy with Light Rain 51 10.6 50 10 96 96 WNW 9 15 29.8 1009 6 9.65604 0.01 0.254
9:25 am 09:25 Cloudy with Rain 51 10.6 50 10 96 96 WNW 10 17 29.8 1009 4 6.43736 0.06 1.524
9:53 am 09:53 Cloudy with Light Rain 52 11.1 50 10 93 93 WNW 10 17 29.8 1009 6 9.65604 0.11 2.794
10:14 am 10:14 Cloudy with Rain 52 11 52 11 100 100 WNW 10 17 29.8 1009 5 8.0467 0 0
10:53 am 10:53 Cloudy with Light Rain 53 11.7 51 10.6 93 93 W 12 19 29.81 1009 6 9.65604 0.09 2.286
11:53 am 11:53 Cloudy with Rain 53 11.7 51 10.6 93 93 W 12 19 29.81 1010 3 4.82802 0.07 1.778
12:01 pm 12:01 Cloudy with Rain 53 11.7 51 10.6 93 93 W 13 20 29.83 1010 3 4.82802 0.03 0.762
12:32 pm 12:32 Cloudy with Rain 52 11 52 11 100 100 NW 5 7 29.83 1010 2 3.21868 0 0
12:37 pm 12:37 Cloudy with Light Rain 53 11.7 52 11.1 96 96 WNW 13 20 29.83 1010 3 4.82802 0.12 3.048
12:53 pm 12:53 Cloudy with Light Rain 53 11.7 52 11.1 96 96 W 7 11 29.82 1010 4 6.43736 0.15 3.81
1:09 pm 13:09 Cloudy with Light Rain 54 12.2 52 11.1 93 93 W 8 13 29.83 1010 6 9.65604 0.02 0.508
1:34 pm 13:34 Cloudy with Light Rain 55 13 54 12 94 94 W 12 19 29.8 1009 5 8.0467 0 0
1:53 pm 13:53 Cloudy with Light Rain 55 12.8 53 11.7 93 93 W 12 19 29.83 1010 10 16.0934 0.05 1.27
2:53 pm 14:53 Mostly Cloudy 57 13.9 53 11.7 87 87 W 10 17 29.83 1010 10 16.0934 0.01 0.254
3:53 pm 15:53 Cloudy with Nearby Thunderstorms 57 13.9 52 11.1 83 83 WSW 5 7 29.83 1010 10 16.0934 0 0
4:41 pm 16:41 Cloudy 56 13.3 53 11.7 90 90 SW 6 9 29.8 1009 10 16.0934 0.01 0.254
4:53 pm 16:53 Mostly Cloudy 56 13.3 52 11.1 87 87 SW 5 7 29.83 1010 10 16.0934 0.01 0.254
5:53 pm 17:53 Cloudy with Light Rain 56 13.3 53 11.7 90 90 SSW 7 11 29.83 1010 9 14.48406 0.01 0.254
6:53 pm 18:53 Mostly Cloudy 56 13.3 53 11.7 90 90 W 7 11 29.84 1011 10 16.0934 0.01 0.254
7:53 pm 19:53 Cloudy 54 12.2 52 11.1 93 93 NW 6 9 29.84 1011 10 16.0934 0 0.0254
8:53 pm 20:53 Clear 51 10.6 50 10 96 96 NW 5 7 29.87 1012 10 16.0934 0 0
9:53 pm 21:53 Mostly Clear 50 10 49 9.4 96 96 NW 5 7 29.9 1013 10 16.0934 0 0
10:53 pm 22:53 Partly Cloudy 50 10 48 8.9 93 93 NNW 5 7 29.91 1013 10 16.0934 0 0
11:03 pm 23:03 Mostly Cloudy 50 10 48 9 94 94 NNW 3 6 29.91 1013 10 16.0934 0 0
11:53 pm 23:53 Mostly Cloudy 49 9.4 48 8.9 97 97 WNW 6 9 29.93 1013 10 16.0934 0 0

Powered by AerisWeather